Weather in El Tarter

Andorra     42°34′47″N   1°38′51″E
temp.,
°C
wind,
m/s
gust,
m/s
humid.,
%
clouds,
%
prec.,
mm/h
press.,
hPa
HPBL,
m
13 april, tue
tue1323:00−6n338512 0.0 103152
02:00−6nnw226799 0.0 103026
05:00−4nnw325597 0.0 102828
08:00−3n224997 0.0 102737
11:00+4n113595 0.0 1023616
14:00+7wnw123698 0.0 10201527
17:00+7nnw124280 0.0 10191639
20:00+2nne1173100 0.0 102120
14 april, wed
wed1423:00−1sw118971 0.0 102411
02:00−1wsw118682 0.0 102413
05:00−1wsw118786 0.0 102214
08:000w117860 0.0 102226
11:00+5sw115650 0.0 10181035
14:00+5nnw126999 0.1 1018928
17:00+3nne2292100 1.6 1019500
20:00+2n2389100 3.3 1020421
15 april, thu
thu1523:00−1nne229598 0.1 102270
02:00−1w119692 0.2 102168
05:00−1w019698 0.1 102091
08:000wnw019384 0.2 102091
11:00+4wnw126010 0.1 10171133
14:00+7nnw1245100 0.1 10151770
17:00+6ne0257100 0.3 10141326
20:00+1n2295100 2.1 1017353
16 april, fri
fri1623:000nne1294100 1.2 1019252
02:00−2nne2294100 1.6 1018222
05:00−2nne1294100 0.5 1017164
08:00−3n229097 1.1 1017318
11:00−2n2281100 0.6 1017625
14:000sse1397100 4.1 1013481
17:00−3nne2398100 14.4 1014392
20:00−5nne3497100 25.5 1017375
17 april, sat
sat1723:00−7nne459699 3.1 1021271
02:00−7nne4595100 3.5 1020190
05:00−8n469495 0.3 1021151
08:00−7n349581 0.8 1021119
11:00−2n358876 0.4 1019656
14:00−1n349030 0.5 1018933
17:00−1n358672 0.2 1018957
20:00−4n339428 0.4 1022101